N5CNB-2 Weather Reports


time (UTC)temp
C
wind
direction
speed
KPH
gust
KPH
rain 1hr
cm
rain 24hr
cm
rain mn
cm
humidity
%
barometer
mb
20260505223054 27 217 11.3 30.6 0.00 0.00 0.00 77 1006.4
20260505221600 27 172 9.7 24.1 0.00 0.00 0.00 77 1006.4
20260505220057 28 160 6.4 24.1 0.00 0.00 0.00 75 1006.5
20260505214556 28 180 9.7 32.2 0.00 0.00 0.00 74 1006.5
20260505213048 28 225 11.3 27.4 0.00 0.00 0.00 75 1006.8
20260505211549 28 184 11.3 27.4 0.00 0.00 0.00 75 1007.1
20260505210051 28 163 14.5 27.4 0.00 0.00 0.00 74 1007.3
20260505204550 28 104 11.3 32.2 0.00 0.00 0.00 77 1007.5
20260505203107 28 162 11.3 25.7 0.00 0.00 0.00 75 1007.5
20260505201600 28 182 8.0 27.4 0.00 0.00 0.00 75 1007.8
20260505200055 28 171 9.7 24.1 0.00 0.00 0.00 76 1008.0
20260505194552 28 194 6.4 30.6 0.00 0.00 0.00 76 1008.1
20260505193052 28 183 11.3 35.4 0.00 0.00 0.00 77 1008.3
20260505191608 27 146 9.7 22.5 0.00 0.00 0.00 77 1008.6
20260505190054 27 177 4.8 19.3 0.00 0.00 0.00 78 1008.8
20260505184556 28 181 3.2 16.1 0.00 0.00 0.00 76 1008.9
20260505183057 27 159 3.2 20.9 0.00 0.00 0.00 80 1008.9
20260505181554 27 135 6.4 17.7 0.00 0.00 0.00 80 1008.9
20260505174600 27 147 8.0 19.3 0.00 0.00 0.00 80 1009.1
20260505173059 26 137 9.7 19.3 0.00 0.00 0.00 79 1009.3
20260505171602 26 196 8.0 16.1 0.00 0.00 0.00 81 1009.3
20260505170111 26 200 6.4 20.9 0.00 0.00 0.00 81 1009.5
20260505164555 26 219 6.4 22.5 0.00 0.00 0.00 84 1009.4
20260505163057 25 193 4.8 22.5 0.00 0.00 0.00 86 1009.5
20260505161613 25 153 6.4 22.5 0.00 0.00 0.00 86 1009.5
20260505153102 24 188 6.4 16.1 0.00 0.00 0.00 87 1009.4
20260505151604 23 171 4.8 17.7 0.00 0.00 0.00 88 1009.3
20260505140105 22 186 8.0 22.5 0.00 0.00 0.00 93 1009.0
20260505124555 -17 0.0 0.0 0.00 0.00 0.00 1008.9
20260505123056 -17 0.0 0.0 0.00 0.00 0.00 1008.7
20260505121622 -17 0.0 0.0 0.00 0.00 0.00 1008.9
20260505120056 -17 0.0 0.0 0.00 0.00 0.00 1008.7
20260505114555 -17 0.0 0.0 0.00 0.00 0.00 1008.7
20260505113101 -17 0.0 0.0 0.00 0.00 0.00 1008.2
20260505111556 -17 0.0 0.0 0.00 0.00 0.00 1008.3
20260505101557 -17 0.0 0.0 0.00 0.00 0.00 1008.3
20260505094557 -17 0.0 0.0 0.00 0.00 0.00 1008.3
20260505093056 -17 0.0 0.0 0.00 0.00 0.00 1008.5
20260505091552 -17 0.0 0.0 0.00 0.00 0.00 1008.9
20260505084553 -17 0.0 0.0 0.00 0.00 0.00 1008.9
20260505083057 -17 0.0 0.0 0.00 0.00 0.00 1009.0
20260505081549 -17 0.0 0.0 0.00 0.00 0.00 1009.1
20260505080056 -17 0.0 0.0 0.00 0.00 0.00 1009.2
20260505074552 -17 0.0 0.0 0.00 0.00 0.00 1009.4
20260505073056 -17 0.0 0.0 0.00 0.00 0.00 1009.7
20260505071555 -17 0.0 0.0 0.00 0.00 0.00 1009.6
20260505070055 -17 0.0 0.0 0.00 0.00 0.00 1009.6
20260505064557 -17 0.0 0.0 0.00 0.00 0.00 1009.7
20260505063052 -17 0.0 0.0 0.00 0.00 0.00 1009.7
20260505061551 -17 0.0 0.0 0.00 0.00 0.00 1009.9
20260505060055 -17 0.0 0.0 0.00 0.00 0.00 1009.8
20260505054556 -17 0.0 0.0 0.00 0.00 0.00 1010.0
20260505053106 -17 0.0 0.0 0.00 0.00 0.00 1010.2
20260505051550 -17 0.0 0.0 0.00 0.00 0.00 1010.2
20260505041551 21 161 4.8 22.5 0.00 0.00 0.00 81 1011.0
20260505040049 21 175 4.8 20.9 0.00 0.00 0.00 80 1011.1
20260505034550 21 185 6.4 25.7 0.00 0.00 0.00 80 1010.7
20260505033109 21 166 6.4 20.9 0.00 0.00 0.00 79 1010.7
20260505031551 21 182 4.8 16.1 0.00 0.00 0.00 78 1010.8
20260505030053 21 0 6.4 17.7 0.00 0.00 0.00 78 1010.8
20260505024552 22 164 4.8 24.1 0.00 0.00 0.00 78 1010.8
20260505023100 22 183 3.2 20.9 0.00 0.00 0.00 77 1010.6
20260505021555 22 166 4.8 24.1 0.00 0.00 0.00 76 1010.7
20260505020053 22 163 4.8 22.5 0.00 0.00 0.00 76 1010.4
20260505014554 23 191 6.4 24.1 0.00 0.00 0.00 75 1010.1
20260505013052 23 172 6.4 17.7 0.00 0.00 0.00 75 1010.0
20260505011601 23 158 6.4 16.1 0.00 0.00 0.00 74 1010.0
20260505010058 23 167 4.8 19.3 0.00 0.00 0.00 73 1009.8
20260505004555 24 202 3.2 16.1 0.00 0.00 0.00 71 1009.7
20260505003052 24 160 4.8 19.3 0.00 0.00 0.00 71 1010.0
20260505001553 24 183 4.8 24.1 0.00 0.00 0.00 71 1010.1
20260505000058 24 182 6.4 19.3 0.00 0.00 0.00 70 1010.1
20260504234615 25 165 8.0 17.7 0.00 0.00 0.00 69 1010.2
20260504233053 25 183 9.7 22.5 0.00 0.00 0.00 68 1010.2
20260504231601 26 151 9.7 20.9 0.00 0.00 0.00 66 1010.4
20260504230050 25 175 9.7 29.0 0.00 0.00 0.00 67 1010.6
20260504224606 26 190 8.0 27.4 0.00 0.00 0.00 65 1010.7